Wind_Speed
6 7 6 6 5 4 1 1 1 1 3 4 6 7 7 8 9 9 9 9 8 7 8 8 7 7 7 7 6 6 6 6 6 5 5 5 5 5 4 4 4 4 4 5 5 5 5 5 4
7 7 7 7 7 4 2 3 2 2 3 5 7 7 7 7 8 8 8 9 8 8 8 8 8 7 7 7 7 6 6 6 6 6 5 5 5 5 5 4 4 4 4 5 5 5 5 5 5
8 8 8 7 8 5 4 5 4 4 5 6 7 8 7 7 7 8 8 9 9 9 9 8 8 7 7 7 6 6 6 6 7 6 6 6 6 6 6 5 5 5 6 6 6 6 6 6 5
9 9 9 9 8 7 6 6 6 4 6 7 7 8 8 7 7 8 8 9 9 9 9 9 8 8 8 7 7 6 6 6 7 7 7 6 7 7 7 6 6 6 7 7 7 7 7 7 6
11 10 10 9 8 6 6 7 7 6 7 8 9 8 8 7 8 8 8 9 9 9 10 9 9 8 8 8 7 7 7 7 7 7 7 7 8 7 7 7 7 7 7 8 7 7 8 8 7
12 11 10 10 9 8 7 7 8 7 8 9 9 9 9 9 9 9 9 9 9 10 10 9 9 9 9 8 8 8 8 8 7 7 7 7 7 7 7 7 7 7 7 7 7 7 8 8 7
13 12 12 11 11 9 8 8 9 8 9 10 10 10 9 9 9 9 10 10 10 11 11 10 10 10 9 9 8 8 8 8 8 7 7 7 7 8 8 8 9 9 8 8 8 8 8 8 8
14 14 14 13 12 11 10 11 10 10 10 11 11 11 10 10 10 10 10 11 11 12 11 10 10 10 10 9 9 9 9 8 8 7 7 7 8 8 8 8 9 9 9 9 9 9 8 8 8
15 15 14 13 13 11 12 12 12 12 11 11 12 12 11 11 11 11 12 12 12 12 12 11 10 10 10 9 9 9 9 8 7 7 7 7 7 8 8 9 9 9 9 9 9 9 9 9 10
16 15 14 15 14 13 13 13 12 11 12 12 12 12 12 12 12 12 11 11 11 12 11 11 10 10 10 10 10 9 9 8 8 8 8 8 8 8 8 9 9 9 9 9 9 9 9 9 10
15 14 16 16 16 15 14 14 13 12 12 13 12 13 13 12 11 12 12 11 11 12 11 10 10 10 10 11 10 10 9 9 8 8 8 8 8 9 8 8 9 9 9 9 9 9 9 10 10
15 14 15 16 16 15 15 14 14 14 13 13 13 12 11 11 12 12 12 12 12 11 11 11 11 11 11 11 11 10 10 10 9 9 8 8 8 8 8 8 8 9 9 10 10 10 10 10 10
15 15 16 17 16 16 16 15 15 15 14 14 13 13 11 11 12 12 12 12 11 11 11 12 11 12 12 11 11 10 10 10 9 9 8 8 8 7 8 8 9 9 10 10 10 10 11 11 11
16 16 17 17 17 17 17 16 17 16 15 14 13 12 12 11 11 12 12 12 12 12 12 13 12 12 12 12 11 11 10 9 9 10 9 9 8 7 8 8 9 9 10 10 10 11 11 12 12
17 16 16 16 17 17 18 16 16 14 15 14 13 11 11 11 11 12 12 12 12 12 12 13 13 12 11 11 11 11 11 10 10 10 9 9 8 8 8 8 9 9 10 10 11 11 12 13 13
18 17 16 15 16 17 17 16 14 15 14 13 12 11 11 12 12 11 12 12 12 12 12 13 13 12 11 11 11 11 11 10 10 9 10 9 9 8 9 9 9 10 10 10 11 12 13 13 13
17 17 16 15 15 16 17 15 15 15 15 14 13 11 11 12 12 12 12 13 13 12 12 13 13 11 11 11 11 11 11 10 10 10 9 9 8 9 9 9 9 10 10 11 11 12 13 13 14
15 17 16 15 14 16 17 16 15 15 15 14 13 12 12 13 13 14 14 13 13 13 13 13 13 12 11 11 11 11 10 10 10 10 10 10 9 9 10 10 10 11 11 12 13 13 13 13 14
16 17 16 15 15 17 17 16 16 15 14 14 15 15 15 15 15 15 15 14 13 13 13 13 13 12 11 11 11 11 11 10 11 11 11 11 10 10 10 11 11 12 12 13 13 14 13 13 13
17 17 16 16 16 19 19 18 18 17 16 15 16 17 17 15 16 16 15 14 13 13 13 13 12 12 12 12 12 11 11 11 11 11 11 11 11 12 12 12 12 12 13 13 14 14 14 14 14
17 17 16 17 18 19 19 20 19 18 17 16 16 17 16 16 16 16 15 15 13 12 12 12 12 12 13 13 12 12 11 11 11 11 11 11 12 12 12 13 13 12 12 12 13 14 15 15 15
16 16 16 16 18 19 20 20 19 18 17 14 13 13 14 15 16 15 15 14 12 11 11 12 12 13 13 14 13 13 12 11 11 11 12 12 12 13 13 14 14 13 13 13 13 13 14 15 16
16 17 18 17 18 20 21 21 19 18 17 14 14 14 14 14 15 13 13 12 12 13 13 13 14 13 14 15 14 13 12 12 12 12 12 12 13 13 14 14 14 14 14 15 15 14 15 16 16
19 20 20 19 19 21 20 21 20 17 17 16 17 17 16 15 15 13 13 12 12 13 14 15 15 14 14 15 14 13 13 13 13 13 13 13 14 14 14 15 15 14 14 15 15 16 17 17 17
20 21 21 21 21 21 19 22 21 18 18 18 19 18 17 17 15 13 13 11 12 13 14 15 14 14 14 15 14 13 14 14 13 13 13 14 14 14 14 15 15 14 15 16 16 16 17 18 18
21 22 22 22 21 20 20 23 21 20 20 20 19 19 18 16 14 14 14 14 14 14 14 15 15 15 15 15 14 13 14 14 14 13 13 14 14 14 14 14 14 14 15 15 16 17 17 18 18
20 21 20 21 20 20 20 22 21 21 21 20 19 18 18 16 15 14 15 15 15 14 15 16 15 15 14 14 13 13 14 14 14 13 14 14 14 14 14 14 15 15 15 16 16 17 18 18 18
16 17 19 20 21 22 21 22 21 21 20 19 19 19 18 17 16 16 16 16 15 15 16 16 16 16 15 14 14 14 14 13 13 13 13 13 13 13 14 14 15 15 16 17 16 17 17 17 18
17 18 21 22 23 24 25 23 21 20 20 19 19 20 19 19 19 17 16 17 16 16 17 17 16 16 16 15 14 14 14 14 13 13 13 13 12 12 12 13 13 14 14 15 15 16 16 16 17
19 20 22 24 24 25 25 25 22 21 20 20 21 22 22 20 19 19 18 17 17 17 17 18 17 16 16 16 15 15 15 14 13 14 13 13 13 12 12 12 11 12 13 14 13 14 14 14 15
Wind_Direction
190 187 182 178 189 200 197 170 261 303 327 323 317 326 339 340 339 344 346 347 347 351 349 345 345 344 342 341 338 337 338 337 333 325 316 312 309 303 296 285 271 259 252 241 235 236 238 247 250
199 195 190 188 199 204 226 227 258 299 322 319 317 316 327 332 340 342 340 345 349 350 349 344 340 336 336 336 335 333 333 333 331 325 314 309 304 300 297 285 274 267 258 243 235 237 240 249 257
205 204 200 198 202 216 233 239 246 276 302 312 312 313 321 328 332 333 336 341 346 347 344 338 334 332 329 327 327 326 325 324 323 319 312 305 299 295 295 287 273 272 264 254 242 240 244 247 251
214 211 214 216 212 230 249 247 249 268 291 299 301 307 314 322 327 325 331 338 341 340 338 332 327 325 323 322 318 316 314 314 314 312 307 299 293 288 286 282 274 275 270 260 250 245 245 247 251
222 224 222 219 219 239 252 256 274 272 287 297 299 301 308 313 323 324 328 334 336 335 334 332 324 322 319 316 313 309 307 310 307 306 301 294 289 283 281 280 275 273 271 262 255 251 250 247 250
227 227 223 222 222 231 242 251 270 271 287 294 293 297 304 307 314 319 322 326 328 328 327 327 322 324 321 314 308 306 304 306 307 306 303 295 286 280 278 277 272 268 267 262 254 252 246 248 252
231 230 229 229 229 231 241 260 269 269 283 291 294 295 304 305 310 316 318 318 318 321 323 321 319 320 323 319 312 308 305 302 303 302 300 293 286 280 276 274 272 265 262 260 259 256 250 251 254
229 231 232 234 236 237 243 253 260 276 281 287 290 293 303 306 309 311 311 312 314 317 318 317 316 318 320 318 313 310 305 303 302 298 293 290 284 278 275 274 270 262 259 256 255 255 252 249 249
232 235 234 238 242 243 246 251 257 273 276 278 283 291 297 300 303 307 309 309 310 313 314 314 313 313 315 315 312 309 303 302 301 295 292 289 286 279 275 272 266 262 258 255 256 257 254 249 248
238 239 235 237 241 246 249 254 257 269 272 275 283 293 297 295 299 306 310 309 311 312 312 310 310 311 311 309 307 303 300 297 296 291 291 290 288 283 275 269 263 260 256 254 254 255 253 250 249
240 237 234 234 238 243 249 257 260 266 267 270 279 289 294 297 299 304 311 310 312 313 313 306 305 305 306 306 304 302 298 293 291 290 291 289 288 286 275 268 261 257 254 253 252 252 249 249 252
239 236 238 238 236 241 246 254 257 261 269 270 272 276 284 293 298 302 307 307 312 314 314 313 308 307 304 302 301 299 292 286 288 290 289 289 288 286 278 264 259 254 253 253 251 250 249 250 251
239 238 239 238 238 242 248 253 258 258 263 268 267 270 275 289 295 298 302 306 308 311 312 314 308 304 302 300 295 297 293 286 285 287 287 290 290 285 277 267 260 257 255 255 253 252 251 249 249
241 240 239 238 237 243 248 248 253 254 259 262 258 264 275 284 291 295 300 307 309 313 311 314 312 304 299 297 292 290 288 281 280 284 284 290 291 280 274 267 263 262 259 258 257 256 253 252 252
240 239 239 240 238 243 249 250 253 253 256 256 254 261 268 278 286 292 297 301 306 313 313 313 313 304 301 297 289 286 282 281 281 281 283 287 287 278 272 269 262 261 262 262 261 258 256 254 253
242 242 241 240 239 241 247 252 251 253 256 254 254 259 270 278 284 289 294 299 302 309 310 310 310 304 300 295 288 286 280 282 283 279 279 282 281 276 275 276 271 265 265 265 263 262 261 257 256
242 244 242 238 240 241 245 252 248 251 254 253 255 260 268 278 286 288 292 297 298 301 305 308 309 302 298 294 289 288 282 282 283 285 284 283 279 278 281 278 278 274 269 268 266 265 264 261 258
248 248 241 238 239 244 245 250 252 253 256 256 254 257 269 277 283 288 290 293 296 297 300 303 306 305 300 298 293 289 283 282 282 284 286 289 290 287 286 284 279 279 276 271 267 267 264 261 259
248 249 246 242 238 242 244 249 253 253 255 259 256 257 264 271 276 282 284 286 289 293 297 299 300 301 298 299 295 290 284 281 283 284 284 286 288 288 287 287 284 280 279 275 269 268 267 264 263
248 247 246 241 238 243 245 245 250 250 253 260 258 258 263 265 273 276 279 280 281 287 291 295 299 300 301 298 297 293 285 284 286 284 283 282 284 284 283 281 284 280 277 275 272 269 269 269 265
246 246 244 243 239 242 247 246 247 250 254 260 261 259 260 266 269 275 282 282 282 286 289 290 292 295 299 297 295 293 290 287 285 283 284 285 285 284 281 280 279 279 276 275 273 271 270 269 266
244 245 246 245 241 240 245 252 250 249 252 257 261 260 259 264 264 270 279 283 286 288 287 290 289 292 296 296 293 291 288 288 285 282 283 282 283 282 281 281 278 277 276 275 275 273 270 267 265
244 244 244 245 246 244 246 251 251 252 251 253 256 261 265 266 263 267 277 282 286 288 290 290 288 290 292 292 292 291 288 288 286 283 282 281 282 282 282 282 279 275 275 276 276 273 272 269 267
243 244 245 246 250 246 246 250 252 252 254 255 257 262 262 265 264 268 277 281 283 287 289 289 288 287 289 288 289 290 288 287 285 283 283 284 283 282 282 281 278 274 275 276 276 275 275 272 269
241 243 245 245 246 247 246 247 249 249 252 256 260 260 259 264 265 269 273 276 280 285 288 288 288 287 288 287 289 290 290 288 284 285 287 289 288 284 282 279 277 277 275 275 277 277 276 275 272
247 245 246 251 249 247 245 247 248 247 249 253 259 260 256 257 261 269 270 273 277 281 284 285 288 288 288 287 288 290 292 290 285 282 286 290 290 287 286 281 280 279 278 277 278 279 278 276 273
244 242 247 252 250 252 248 249 250 251 248 251 255 259 255 253 259 264 267 267 273 279 284 283 283 285 287 285 284 287 290 290 289 283 284 287 288 287 288 283 281 280 280 280 281 282 280 278 274
244 243 244 248 252 254 252 252 255 250 250 250 255 257 255 251 256 259 260 263 270 274 278 278 281 282 285 285 285 286 293 291 289 286 285 286 290 290 289 286 285 284 285 283 283 283 282 278 275
242 243 246 252 255 254 256 258 259 260 254 251 252 252 250 255 257 258 258 263 267 269 272 274 274 278 282 285 287 290 293 290 290 290 292 289 288 292 295 291 291 291 291 290 288 286 282 281 279
246 247 247 250 253 254 257 261 259 258 257 254 256 255 254 255 259 264 263 263 265 267 270 272 272 278 281 282 284 285 289 289 290 291 288 287 290 293 295 297 298 299 299 298 296 293 290 287 284
Height
5895 5895 5896 5897 5898 5897 5896 5896 5896 5896 5897 5896 5896 5896 5895 5896 5896 5897 5894 5891 5889 5889 5888 5887 5886 5885 5885 5884 5883 5883 5882 5881 5881 5880 5880 5879 5878 5878 5878 5878 5877 5877 5877 5877 5877 5876 5877 5877 5877
5894 5894 5896 5897 5896 5896 5896 5896 5896 5896 5896 5895 5895 5895 5895 5895 5894 5893 5892 5890 5889 5888 5887 5887 5886 5885 5884 5883 5882 5882 5881 5881 5880 5880 5879 5878 5878 5877 5877 5877 5876 5876 5876 5876 5876 5876 5876 5876 5876
5893 5894 5895 5896 5895 5895 5895 5895 5895 5895 5895 5895 5895 5894 5894 5894 5893 5892 5891 5890 5889 5888 5887 5886 5885 5884 5883 5883 5882 5881 5880 5880 5879 5879 5878 5878 5877 5877 5876 5876 5876 5875 5875 5875 5875 5875 5875 5875 5875
5892 5893 5894 5895 5894 5894 5893 5893 5893 5893 5894 5894 5894 5894 5893 5894 5892 5891 5890 5889 5888 5887 5886 5885 5884 5883 5882 5882 5881 5880 5879 5879 5878 5877 5877 5876 5876 5876 5875 5875 5875 5874 5874 5874 5874 5874 5874 5874 5874
5890 5891 5892 5892 5893 5893 5893 5892 5892 5892 5892 5892 5893 5892 5892 5892 5891 5890 5890 5889 5888 5887 5886 5884 5883 5882 5881 5880 5880 5879 5878 5877 5877 5876 5876 5875 5875 5874 5874 5874 5874 5873 5873 5872 5873 5873 5873 5873 5873
5889 5890 5890 5890 5891 5891 5891 5890 5891 5891 5890 5891 5891 5891 5890 5890 5890 5889 5889 5888 5887 5886 5885 5883 5882 5881 5880 5879 5878 5878 5877 5876 5875 5875 5874 5873 5873 5873 5872 5872 5872 5872 5872 5871 5871 5871 5871 5871 5872
5888 5888 5888 5888 5889 5889 5890 5888 5889 5889 5889 5889 5889 5889 5889 5889 5889 5888 5888 5887 5886 5885 5884 5882 5881 5880 5878 5878 5877 5876 5875 5874 5873 5873 5873 5872 5871 5871 5870 5870 5870 5870 5870 5870 5870 5870 5870 5870 5871
5884 5886 5885 5886 5886 5888 5887 5886 5887 5887 5887 5887 5888 5888 5888 5888 5887 5887 5886 5885 5885 5883 5882 5881 5879 5878 5877 5876 5875 5874 5873 5872 5872 5871 5871 5870 5869 5869 5868 5868 5868 5868 5868 5868 5868 5868 5869 5869 5869
5882 5884 5883 5884 5885 5885 5885 5885 5885 5885 5885 5885 5886 5886 5886 5886 5885 5885 5885 5884 5883 5882 5880 5879 5878 5877 5876 5875 5873 5872 5871 5871 5870 5869 5868 5868 5867 5866 5866 5866 5866 5866 5866 5866 5867 5867 5867 5867 5867
5879 5880 5881 5882 5882 5882 5882 5882 5881 5882 5883 5883 5883 5884 5883 5883 5883 5883 5882 5882 5881 5880 5878 5877 5876 5875 5874 5873 5872 5870 5870 5869 5868 5867 5866 5866 5865 5865 5864 5864 5864 5864 5864 5864 5865 5865 5865 5865 5865
5876 5878 5878 5879 5879 5880 5880 5880 5879 5880 5881 5881 5881 5881 5881 5881 5881 5881 5880 5880 5879 5877 5876 5875 5874 5873 5872 5871 5870 5869 5868 5867 5866 5865 5864 5864 5863 5863 5862 5862 5862 5862 5862 5862 5863 5863 5863 5863 5863
5874 5875 5875 5876 5876 5877 5877 5877 5877 5878 5879 5880 5880 5880 5879 5879 5879 5879 5878 5878 5877 5875 5874 5872 5871 5870 5869 5868 5867 5866 5865 5865 5864 5863 5863 5862 5861 5860 5860 5859 5859 5860 5860 5860 5860 5860 5861 5861 5861
5870 5872 5872 5872 5872 5874 5874 5874 5875 5876 5876 5876 5877 5877 5877 5877 5877 5877 5877 5876 5875 5873 5872 5870 5869 5868 5867 5866 5864 5864 5863 5862 5862 5861 5861 5860 5859 5858 5858 5857 5857 5857 5857 5857 5858 5858 5858 5858 5858
5867 5868 5868 5869 5870 5871 5871 5872 5873 5874 5874 5874 5874 5874 5875 5875 5875 5875 5874 5874 5872 5871 5869 5868 5866 5865 5864 5863 5862 5862 5861 5860 5860 5859 5859 5858 5857 5857 5856 5855 5855 5855 5855 5855 5855 5855 5855 5855 5855
5863 5864 5865 5866 5867 5868 5868 5869 5870 5871 5871 5871 5872 5872 5873 5873 5873 5872 5872 5871 5870 5868 5867 5865 5864 5862 5861 5860 5860 5859 5859 5858 5858 5857 5856 5856 5855 5854 5853 5853 5852 5852 5852 5852 5852 5852 5852 5852 5852
5858 5859 5860 5862 5863 5864 5866 5866 5867 5867 5868 5869 5869 5869 5870 5870 5870 5870 5869 5869 5867 5866 5865 5863 5861 5860 5859 5858 5857 5857 5856 5856 5855 5854 5853 5853 5852 5851 5851 5850 5850 5849 5849 5849 5849 5848 5848 5848 5849
5854 5855 5856 5858 5860 5861 5861 5863 5864 5864 5865 5865 5866 5866 5867 5867 5867 5867 5867 5866 5865 5864 5863 5861 5859 5858 5856 5855 5855 5854 5853 5853 5852 5851 5851 5850 5849 5848 5848 5847 5847 5847 5846 5846 5846 5845 5845 5845 5845
5851 5851 5852 5853 5855 5856 5857 5858 5859 5860 5860 5861 5862 5863 5863 5864 5864 5864 5864 5863 5862 5861 5860 5858 5857 5855 5854 5853 5852 5851 5850 5850 5849 5848 5848 5847 5846 5845 5845 5844 5844 5843 5843 5842 5842 5842 5841 5841 5841
5846 5847 5847 5849 5850 5851 5852 5853 5855 5856 5856 5857 5858 5859 5860 5860 5861 5860 5860 5860 5859 5858 5857 5856 5854 5853 5852 5851 5850 5848 5847 5847 5846 5845 5845 5844 5843 5842 5842 5841 5841 5840 5839 5839 5838 5838 5838 5838 5838
5841 5842 5843 5845 5845 5846 5846 5848 5849 5850 5852 5853 5854 5855 5856 5856 5857 5857 5857 5856 5855 5855 5854 5853 5852 5850 5849 5848 5847 5845 5845 5844 5843 5842 5841 5840 5840 5839 5838 5838 5837 5836 5835 5835 5834 5834 5834 5834 5834
5836 5838 5839 5840 5841 5841 5842 5844 5845 5846 5847 5848 5849 5851 5852 5853 5853 5853 5853 5852 5852 5851 5851 5850 5849 5848 5846 5845 5844 5843 5841 5840 5839 5839 5838 5837 5836 5835 5834 5834 5833 5832 5831 5831 5830 5829 5829 5829 5829
5832 5834 5835 5836 5837 5837 5839 5838 5841 5842 5843 5844 5845 5846 5847 5848 5849 5849 5849 5849 5848 5848 5848 5847 5846 5845 5844 5842 5841 5839 5838 5837 5836 5835 5834 5833 5832 5831 5830 5829 5828 5827 5827 5826 5826 5825 5825 5824 5824
5828 5829 5830 5831 5832 5833 5834 5834 5836 5837 5838 5840 5841 5842 5843 5844 5844 5845 5846 5846 5846 5845 5845 5844 5843 5842 5841 5839 5838 5836 5835 5833 5832 5831 5830 5829 5828 5827 5826 5825 5824 5823 5822 5822 5821 5821 5820 5820 5819
5824 5825 5826 5827 5828 5829 5831 5830 5831 5833 5834 5835 5836 5837 5839 5840 5840 5841 5842 5842 5842 5842 5841 5840 5839 5838 5837 5836 5834 5833 5831 5830 5828 5827 5826 5825 5824 5822 5821 5820 5819 5818 5817 5817 5816 5815 5815 5814 5814
5819 5821 5821 5822 5823 5824 5826 5825 5827 5829 5830 5831 5832 5833 5834 5835 5836 5837 5838 5838 5838 5838 5837 5836 5835 5834 5833 5832 5830 5829 5827 5826 5824 5823 5822 5820 5819 5817 5816 5815 5814 5813 5812 5812 5811 5810 5809 5809 5808
5814 5815 5817 5818 5818 5819 5820 5819 5823 5824 5825 5825 5826 5828 5830 5831 5832 5832 5833 5834 5833 5833 5833 5832 5831 5830 5829 5828 5826 5825 5823 5822 5820 5819 5817 5816 5814 5812 5811 5810 5809 5808 5807 5806 5805 5804 5804 5803 5802
5809 5810 5812 5813 5813 5813 5814 5816 5818 5819 5820 5821 5822 5823 5824 5825 5827 5827 5828 5829 5828 5829 5829 5828 5827 5826 5824 5823 5822 5820 5819 5818 5816 5814 5813 5811 5809 5808 5806 5805 5804 5803 5802 5801 5800 5799 5798 5797 5796
5804 5806 5807 5807 5808 5808 5810 5811 5814 5815 5815 5816 5817 5818 5820 5821 5821 5822 5823 5823 5823 5824 5824 5823 5822 5821 5820 5818 5817 5815 5814 5813 5811 5810 5808 5807 5805 5803 5802 5801 5799 5798 5797 5795 5794 5793 5791 5790 5790
5800 5801 5801 5802 5803 5803 5804 5808 5809 5810 5811 5812 5813 5814 5815 5816 5817 5817 5817 5818 5818 5819 5818 5818 5817 5816 5815 5813 5812 5811 5809 5808 5806 5805 5803 5802 5801 5799 5798 5796 5795 5793 5792 5790 5788 5787 5786 5785 5784
5795 5796 5796 5797 5798 5798 5799 5803 5803 5804 5805 5806 5807 5809 5809 5810 5811 5811 5811 5812 5813 5812 5812 5812 5812 5811 5810 5809 5808 5806 5805 5804 5802 5800 5799 5798 5797 5795 5794 5792 5791 5789 5788 5786 5784 5782 5781 5780 5779